| time (UTC) | temp F | wind direction | speed knots | gust knots | rain 1hr in | rain 24hr in | rain mn in | humidity % | barometer mb |
| 20260508030207 | 53 | 224 | 0.0 | 0.0 | 0.00 | 0.00 | 0.00 | 32 | 1023.3 |
| 20260508025704 | 53 | 224 | 0.0 | 0.0 | 0.00 | 0.00 | 0.00 | 32 | 1023.4 |
| 20260508025203 | 53 | 224 | 0.0 | 0.0 | 0.00 | 0.00 | 0.00 | 32 | 1023.3 |
| 20260508024642 | 53 | 224 | 0.0 | 0.0 | 0.00 | 0.00 | 0.00 | 32 | 1023.4 |
| 20260508024115 | 53 | 224 | 0.0 | 0.0 | 0.00 | 0.00 | 0.00 | 32 | 1023.3 |
| 20260508023619 | 53 | 224 | 0.0 | 0.0 | 0.00 | 0.00 | 0.00 | 32 | 1023.3 |
| 20260508023320 | 54 | 224 | 0.0 | 0.0 | 0.00 | 0.00 | 0.00 | 32 | 1023.2 |
| 20260508022549 | 54 | 224 | 0.0 | 0.0 | 0.00 | 0.00 | 0.00 | 32 | 1023.2 |
| 20260508022022 | 54 | 224 | 0.0 | 0.0 | 0.00 | 0.00 | 0.00 | 32 | 1023.2 |
| 20260508021501 | 54 | 224 | 0.0 | 0.0 | 0.00 | 0.00 | 0.00 | 32 | 1023.2 |
| 20260508021004 | 54 | 224 | 0.0 | 0.0 | 0.00 | 0.00 | 0.00 | 32 | 1023.1 |
| 20260508020706 | 54 | 224 | 0.0 | 0.0 | 0.00 | 0.00 | 0.00 | 32 | 1023.0 |
| 20260508015934 | 54 | 224 | 0.0 | 0.0 | 0.00 | 0.00 | 0.00 | 32 | 1023.0 |
| 20260508015406 | 54 | 224 | 0.0 | 0.0 | 0.00 | 0.00 | 0.00 | 32 | 1022.9 |
| 20260508015135 | 55 | 224 | 0.0 | 0.0 | 0.00 | 0.00 | 0.00 | 32 | 1022.9 |
| 20260508014408 | 55 | 224 | 0.0 | 0.0 | 0.00 | 0.00 | 0.00 | 31 | 1022.8 |
| 20260508013828 | 55 | 224 | 0.0 | 0.0 | 0.00 | 0.00 | 0.00 | 31 | 1022.8 |
| 20260508013300 | 55 | 224 | 0.0 | 0.0 | 0.00 | 0.00 | 0.00 | 31 | 1022.7 |
| 20260508013017 | 55 | 224 | 0.0 | 0.0 | 0.00 | 0.00 | 0.00 | 30 | 1022.6 |
| 20260508012248 | 56 | 224 | 0.0 | 0.0 | 0.00 | 0.00 | 0.00 | 30 | 1022.7 |
| 20260508011745 | 56 | 224 | 0.0 | 0.0 | 0.00 | 0.00 | 0.00 | 30 | 1022.6 |
| 20260508011237 | 56 | 224 | 0.0 | 0.0 | 0.00 | 0.00 | 0.00 | 29 | 1022.6 |
| 20260508010947 | 56 | 225 | 0.0 | 0.0 | 0.00 | 0.00 | 0.00 | 29 | 1022.6 |
| 20260508010214 | 56 | 224 | 0.0 | 0.0 | 0.00 | 0.00 | 0.00 | 30 | 1022.6 |
| 20260508005645 | 57 | 224 | 0.0 | 0.0 | 0.00 | 0.00 | 0.00 | 29 | 1022.6 |
| 20260508005144 | 57 | 224 | 0.0 | 0.0 | 0.00 | 0.00 | 0.00 | 29 | 1022.6 |
| 20260508004617 | 57 | 224 | 0.0 | 0.0 | 0.00 | 0.00 | 0.00 | 29 | 1022.6 |
| 20260508004101 | 57 | 224 | 0.0 | 0.0 | 0.00 | 0.00 | 0.00 | 29 | 1022.6 |
| 20260508003835 | 58 | 224 | 0.0 | 0.0 | 0.00 | 0.00 | 0.00 | 28 | 1022.6 |
| 20260508003038 | 58 | 224 | 0.0 | 0.0 | 0.00 | 0.00 | 0.00 | 28 | 1022.5 |
| 20260508002512 | 58 | 224 | 0.0 | 0.0 | 0.00 | 0.00 | 0.00 | 27 | 1022.6 |
| 20260508001943 | 58 | 224 | 0.0 | 0.0 | 0.00 | 0.00 | 0.00 | 27 | 1022.6 |
| 20260508001715 | 58 | 246 | 0.0 | 0.0 | 0.00 | 0.00 | 0.00 | 28 | 1022.6 |
| 20260508000921 | 59 | 240 | 0.0 | 0.0 | 0.00 | 0.00 | 0.00 | 27 | 1022.6 |
| 20260508000339 | 59 | 240 | 0.0 | 0.0 | 0.00 | 0.00 | 0.00 | 26 | 1022.5 |
| 20260507235840 | 59 | 240 | 0.0 | 0.0 | 0.00 | 0.00 | 0.00 | 27 | 1022.5 |
| 20260507235545 | 59 | 242 | 0.0 | 0.0 | 0.00 | 0.00 | 0.00 | 27 | 1022.6 |
| 20260507234810 | 59 | 242 | 0.0 | 0.0 | 0.00 | 0.00 | 0.00 | 26 | 1022.7 |
| 20260507234308 | 60 | 242 | 0.0 | 0.0 | 0.00 | 0.00 | 0.00 | 27 | 1022.7 |
| 20260507233742 | 60 | 243 | 0.0 | 0.0 | 0.00 | 0.00 | 0.00 | 26 | 1022.8 |
| 20260507233203 | 60 | 242 | 0.0 | 0.0 | 0.00 | 0.00 | 0.00 | 25 | 1022.8 |
| 20260507232638 | 60 | 257 | 0.0 | 0.0 | 0.00 | 0.00 | 0.00 | 26 | 1022.8 |
| 20260507232346 | 61 | 238 | 0.0 | 0.0 | 0.00 | 0.00 | 0.00 | 24 | 1022.9 |
| 20260507231551 | 61 | 188 | 0.0 | 0.0 | 0.00 | 0.00 | 0.00 | 23 | 1022.9 |
| 20260507231258 | 62 | 251 | 0.0 | 0.0 | 0.00 | 0.00 | 0.00 | 23 | 1022.9 |
| 20260507230528 | 62 | 243 | 0.0 | 0.0 | 0.00 | 0.00 | 0.00 | 23 | 1022.9 |
| 20260507230013 | 63 | 304 | 0.0 | 0.0 | 0.00 | 0.00 | 0.00 | 22 | 1023.0 |
| 20260507225515 | 63 | 346 | 0.0 | 0.0 | 0.00 | 0.00 | 0.00 | 22 | 1023.0 |
| 20260507224950 | 63 | 161 | 0.0 | 0.0 | 0.00 | 0.00 | 0.00 | 23 | 1023.0 |
| 20260507224436 | 63 | 227 | 0.0 | 0.0 | 0.00 | 0.00 | 0.00 | 22 | 1023.0 |
| 20260507223934 | 63 | 243 | 0.0 | 0.0 | 0.00 | 0.00 | 0.00 | 22 | 1023.2 |
| 20260507223704 | 63 | 327 | 0.0 | 1.7 | 0.00 | 0.00 | 0.00 | 22 | 1023.2 |
| 20260507222931 | 63 | 257 | 0.0 | 1.7 | 0.00 | 0.00 | 0.00 | 22 | 1023.2 |
| 20260507222434 | 63 | 214 | 0.0 | 2.6 | 0.00 | 0.00 | 0.00 | 21 | 1023.1 |
| 20260507221909 | 63 | 194 | 0.0 | 2.6 | 0.00 | 0.00 | 0.00 | 21 | 1023.1 |
| 20260507221356 | 63 | 254 | 0.0 | 0.9 | 0.00 | 0.00 | 0.00 | 21 | 1023.2 |
| 20260507220856 | 64 | 271 | 0.0 | 5.2 | 0.00 | 0.00 | 0.00 | 22 | 1023.2 |
| 20260507220345 | 63 | 284 | 0.0 | 5.2 | 0.00 | 0.00 | 0.00 | 22 | 1023.1 |
| 20260507215842 | 64 | 336 | 0.0 | 3.5 | 0.00 | 0.00 | 0.00 | 22 | 1023.2 |
| 20260507215332 | 64 | 307 | 0.0 | 3.5 | 0.00 | 0.00 | 0.00 | 21 | 1023.3 |
| 20260507214833 | 64 | 245 | 0.0 | 0.9 | 0.00 | 0.00 | 0.00 | 21 | 1023.3 |
| 20260507214333 | 64 | 187 | 0.0 | 0.9 | 0.00 | 0.00 | 0.00 | 22 | 1023.3 |
| 20260507213831 | 63 | 350 | 0.0 | 3.5 | 0.00 | 0.00 | 0.00 | 22 | 1023.4 |
| 20260507213331 | 63 | 243 | 0.0 | 3.5 | 0.00 | 0.00 | 0.00 | 22 | 1023.4 |
| 20260507212827 | 63 | 327 | 0.0 | 0.9 | 0.00 | 0.00 | 0.00 | 22 | 1023.4 |
| 20260507212324 | 62 | 268 | 0.0 | 0.9 | 0.00 | 0.00 | 0.00 | 22 | 1023.4 |
| 20260507211824 | 63 | 22 | 0.0 | 0.9 | 0.00 | 0.00 | 0.00 | 24 | 1023.5 |
| 20260507211310 | 62 | 252 | 0.0 | 0.9 | 0.00 | 0.00 | 0.00 | 23 | 1023.5 |
| 20260507210812 | 63 | 278 | 0.0 | 0.0 | 0.00 | 0.00 | 0.00 | 22 | 1023.6 |
| 20260507210747 | 63 | 255 | 0.0 | 0.9 | 0.00 | 0.00 | 0.00 | 21 | 1023.6 |
| 20260507205722 | 63 | 263 | 0.0 | 1.7 | 0.00 | 0.00 | 0.00 | 21 | 1023.7 |
| 20260507205452 | 64 | 263 | 0.0 | 1.7 | 0.00 | 0.00 | 0.00 | 21 | 1023.6 |
| 20260507204659 | 63 | 194 | 0.0 | 0.0 | 0.00 | 0.00 | 0.00 | 25 | 1023.8 |
| 20260507204139 | 62 | 246 | 0.0 | 0.9 | 0.00 | 0.00 | 0.00 | 24 | 1023.8 |
| 20260507203619 | 63 | 5 | 0.0 | 0.9 | 0.00 | 0.00 | 0.00 | 23 | 1024.0 |
| 20260507203118 | 63 | 230 | 0.0 | 0.9 | 0.00 | 0.00 | 0.00 | 21 | 1023.9 |
| 20260507202613 | 62 | 248 | 0.0 | 0.9 | 0.00 | 0.00 | 0.00 | 22 | 1024.0 |
| 20260507202319 | 61 | 271 | 0.0 | 0.9 | 0.00 | 0.00 | 0.00 | 25 | 1024.0 |
| 20260507201535 | 60 | 350 | 0.0 | 1.7 | 0.00 | 0.00 | 0.00 | 25 | 1024.0 |
| 20260507201013 | 60 | 167 | 0.0 | 2.6 | 0.00 | 0.00 | 0.00 | 22 | 1024.1 |
| 20260507200509 | 61 | 241 | 0.0 | 4.3 | 0.00 | 0.00 | 0.00 | 21 | 1024.2 |
| 20260507200009 | 61 | 236 | 0.0 | 4.3 | 0.00 | 0.00 | 0.00 | 22 | 1024.3 |
| 20260507195458 | 62 | 241 | 0.0 | 0.0 | 0.00 | 0.00 | 0.00 | 23 | 1024.2 |
| 20260507194957 | 62 | 338 | 0.0 | 0.0 | 0.00 | 0.00 | 0.00 | 25 | 1024.3 |
| 20260507194454 | 62 | 355 | 0.0 | 0.0 | 0.00 | 0.00 | 0.00 | 23 | 1024.4 |
| 20260507193932 | 62 | 266 | 0.0 | 0.0 | 0.00 | 0.00 | 0.00 | 22 | 1024.5 |
| 20260507193359 | 63 | 48 | 0.0 | 0.0 | 0.00 | 0.00 | 0.00 | 22 | 1024.5 |
| 20260507192831 | 62 | 208 | 0.0 | 0.0 | 0.00 | 0.00 | 0.00 | 24 | 1024.4 |
| 20260507192323 | 62 | 211 | 0.0 | 0.0 | 0.00 | 0.00 | 0.00 | 22 | 1024.5 |
| 20260507191757 | 62 | 72 | 0.0 | 0.0 | 0.00 | 0.00 | 0.00 | 23 | 1024.5 |
| 20260507191505 | 62 | 250 | 0.0 | 2.6 | 0.00 | 0.00 | 0.00 | 26 | 1024.6 |
| 20260507190935 | 62 | 234 | 0.0 | 2.6 | 0.00 | 0.00 | 0.00 | 22 | 1024.8 |
| 20260507190139 | 63 | 215 | 0.0 | 0.9 | 0.00 | 0.00 | 0.00 | 23 | 1024.8 |
| 20260507185618 | 62 | 200 | 0.0 | 0.9 | 0.00 | 0.00 | 0.00 | 26 | 1024.8 |
| 20260507185035 | 61 | 198 | 0.0 | 0.0 | 0.00 | 0.00 | 0.00 | 26 | 1024.8 |
| 20260507184510 | 60 | 279 | 0.0 | 0.0 | 0.00 | 0.00 | 0.00 | 26 | 1024.8 |
| 20260507183940 | 59 | 279 | 0.0 | 0.9 | 0.00 | 0.00 | 0.00 | 25 | 1024.9 |
| 20260507183711 | 60 | 274 | 0.0 | 0.9 | 0.00 | 0.00 | 0.00 | 25 | 1025.0 |
| 20260507182919 | 60 | 261 | 0.0 | 0.0 | 0.00 | 0.00 | 0.00 | 24 | 1025.0 |
| 20260507182415 | 60 | 276 | 0.0 | 0.0 | 0.00 | 0.00 | 0.00 | 26 | 1025.0 |
| 20260507181920 | 60 | 215 | 0.0 | 0.0 | 0.00 | 0.00 | 0.00 | 29 | 1024.9 |
| 20260507181624 | 60 | 308 | 0.0 | 0.0 | 0.00 | 0.00 | 0.00 | 26 | 1025.1 |
| 20260507180832 | 59 | 298 | 0.0 | 0.0 | 0.00 | 0.00 | 0.00 | 26 | 1025.1 |
| 20260507180254 | 59 | 24 | 0.0 | 0.0 | 0.00 | 0.00 | 0.00 | 28 | 1025.0 |
| 20260507175753 | 60 | 273 | 0.0 | 0.9 | 0.00 | 0.00 | 0.00 | 27 | 1025.1 |
| 20260507175240 | 59 | 304 | 0.0 | 0.9 | 0.00 | 0.00 | 0.00 | 25 | 1025.1 |
| 20260507174739 | 59 | 243 | 0.0 | 0.9 | 0.00 | 0.00 | 0.00 | 28 | 1025.1 |
| 20260507174210 | 59 | 355 | 0.0 | 0.0 | 0.00 | 0.00 | 0.00 | 29 | 1025.1 |
| 20260507173709 | 59 | 257 | 0.0 | 0.9 | 0.00 | 0.00 | 0.00 | 28 | 1025.3 |
| 20260507173143 | 58 | 278 | 0.0 | 0.9 | 0.00 | 0.00 | 0.00 | 26 | 1025.2 |
| 20260507172618 | 58 | 196 | 0.0 | 4.3 | 0.00 | 0.00 | 0.00 | 27 | 1025.3 |
| 20260507172112 | 58 | 216 | 0.0 | 4.3 | 0.00 | 0.00 | 0.00 | 28 | 1025.3 |
| 20260507171611 | 58 | 272 | 0.0 | 0.0 | 0.00 | 0.00 | 0.00 | 27 | 1025.5 |
| 20260507171111 | 58 | 351 | 0.0 | 0.9 | 0.00 | 0.00 | 0.00 | 27 | 1025.5 |
| 20260507170615 | 57 | 303 | 0.0 | 0.9 | 0.00 | 0.00 | 0.00 | 28 | 1025.6 |
| 20260507170046 | 57 | 243 | 0.0 | 1.7 | 0.00 | 0.00 | 0.00 | 27 | 1025.6 |
| 20260507165547 | 56 | 242 | 0.0 | 1.7 | 0.00 | 0.00 | 0.00 | 25 | 1025.6 |
| 20260507165317 | 56 | 277 | 0.0 | 1.7 | 0.00 | 0.00 | 0.00 | 28 | 1025.6 |
| 20260507164547 | 55 | 323 | 0.0 | 0.9 | 0.00 | 0.00 | 0.00 | 29 | 1025.7 |
| 20260507164021 | 55 | 348 | 0.0 | 0.9 | 0.00 | 0.00 | 0.00 | 31 | 1025.8 |
| 20260507163455 | 55 | 226 | 0.0 | 0.9 | 0.00 | 0.00 | 0.00 | 31 | 1025.7 |
| 20260507162928 | 55 | 334 | 0.0 | 0.0 | 0.00 | 0.00 | 0.00 | 32 | 1025.8 |
| 20260507162427 | 55 | 257 | 0.0 | 0.0 | 0.00 | 0.00 | 0.00 | 33 | 1025.8 |
| 20260507161910 | 54 | 288 | 0.0 | 0.0 | 0.00 | 0.00 | 0.00 | 33 | 1025.8 |
| 20260507161412 | 54 | 348 | 0.0 | 0.0 | 0.00 | 0.00 | 0.00 | 33 | 1025.9 |
| 20260507160844 | 54 | 310 | 0.0 | 0.0 | 0.00 | 0.00 | 0.00 | 33 | 1025.9 |
| 20260507160613 | 54 | 309 | 0.0 | 0.0 | 0.00 | 0.00 | 0.00 | 33 | 1026.0 |
| 20260507155814 | 53 | 309 | 0.0 | 0.0 | 0.00 | 0.00 | 0.00 | 35 | 1026.0 |
| 20260507155313 | 53 | 340 | 0.0 | 0.0 | 0.00 | 0.00 | 0.00 | 35 | 1026.0 |
| 20260507154756 | 54 | 261 | 0.0 | 0.0 | 0.00 | 0.00 | 0.00 | 32 | 1025.9 |
| 20260507154256 | 53 | 224 | 0.0 | 0.0 | 0.00 | 0.00 | 0.00 | 33 | 1025.9 |
| 20260507153757 | 51 | 224 | 0.0 | 0.0 | 0.00 | 0.00 | 0.00 | 36 | 1026.0 |
| 20260507153523 | 51 | 44 | 0.0 | 0.9 | 0.00 | 0.00 | 0.00 | 35 | 1026.0 |
| 20260507152751 | 51 | 222 | 0.0 | 0.9 | 0.00 | 0.00 | 0.00 | 36 | 1026.1 |
| 20260507152456 | 51 | 230 | 0.0 | 1.7 | 0.00 | 0.00 | 0.00 | 37 | 1026.1 |
| 20260507151928 | 51 | 230 | 0.0 | 1.7 | 0.00 | 0.00 | 0.00 | 37 | 1026.1 |
| 20260507151149 | 51 | 234 | 0.0 | 0.0 | 0.00 | 0.00 | 0.00 | 37 | 1026.2 |
| 20260507150623 | 50 | 234 | 0.0 | 0.0 | 0.00 | 0.00 | 0.00 | 40 | 1026.1 |
| 20260507150123 | 49 | 234 | 0.0 | 0.0 | 0.00 | 0.00 | 0.00 | 38 | 1026.1 |
| 20260507145856 | 49 | 234 | 0.0 | 0.0 | 0.00 | 0.00 | 0.00 | 39 | 1026.1 |
| 20260507145124 | 48 | 234 | 0.0 | 0.0 | 0.00 | 0.00 | 0.00 | 41 | 1026.1 |
| 20260507144622 | 48 | 234 | 0.0 | 0.0 | 0.00 | 0.00 | 0.00 | 42 | 1026.2 |
| 20260507144119 | 47 | 234 | 0.0 | 0.0 | 0.00 | 0.00 | 0.00 | 43 | 1026.2 |
| 20260507143851 | 47 | 233 | 0.0 | 0.0 | 0.00 | 0.00 | 0.00 | 43 | 1026.2 |
| 20260507143053 | 47 | 227 | 0.0 | 0.0 | 0.00 | 0.00 | 0.00 | 46 | 1026.2 |
| 20260507142522 | 47 | 227 | 0.0 | 0.0 | 0.00 | 0.00 | 0.00 | 45 | 1026.3 |
| 20260507142254 | 46 | 227 | 0.0 | 0.0 | 0.00 | 0.00 | 0.00 | 46 | 1026.3 |
| 20260507141457 | 45 | 227 | 0.0 | 0.0 | 0.00 | 0.00 | 0.00 | 46 | 1026.3 |
| 20260507141222 | 45 | 227 | 0.0 | 0.0 | 0.00 | 0.00 | 0.00 | 48 | 1026.4 |
| 20260507140425 | 44 | 227 | 0.0 | 0.0 | 0.00 | 0.00 | 0.00 | 49 | 1026.4 |
| 20260507135922 | 44 | 227 | 0.0 | 0.0 | 0.00 | 0.00 | 0.00 | 52 | 1026.3 |
| 20260507135648 | 43 | 227 | 0.0 | 0.0 | 0.00 | 0.00 | 0.00 | 54 | 1026.4 |
| 20260507134907 | 43 | 227 | 0.0 | 0.0 | 0.00 | 0.00 | 0.00 | 59 | 1026.4 |
| 20260507134406 | 42 | 227 | 0.0 | 0.0 | 0.00 | 0.00 | 0.00 | 60 | 1026.4 |
| 20260507134134 | 42 | 227 | 0.0 | 0.0 | 0.00 | 0.00 | 0.00 | 61 | 1026.4 |
| 20260507133328 | 41 | 226 | 0.0 | 0.0 | 0.00 | 0.00 | 0.00 | 64 | 1026.4 |
| 20260507132801 | 41 | 225 | 0.0 | 0.0 | 0.00 | 0.00 | 0.00 | 63 | 1026.4 |
| 20260507132237 | 40 | 225 | 0.0 | 0.0 | 0.00 | 0.00 | 0.00 | 64 | 1026.5 |
| 20260507131732 | 40 | 225 | 0.0 | 0.0 | 0.00 | 0.00 | 0.00 | 65 | 1026.5 |
| 20260507131228 | 40 | 225 | 0.0 | 0.0 | 0.00 | 0.00 | 0.00 | 65 | 1026.5 |
| 20260507130710 | 39 | 225 | 0.0 | 0.0 | 0.00 | 0.00 | 0.00 | 66 | 1026.5 |
| 20260507130209 | 39 | 225 | 0.0 | 0.0 | 0.00 | 0.00 | 0.00 | 67 | 1026.5 |
| 20260507130149 | 38 | 225 | 0.0 | 0.0 | 0.00 | 0.00 | 0.00 | 69 | 1026.5 |
| 20260507125146 | 38 | 225 | 0.0 | 0.0 | 0.00 | 0.00 | 0.00 | 69 | 1026.5 |
| 20260507124643 | 38 | 225 | 0.0 | 0.0 | 0.00 | 0.00 | 0.00 | 69 | 1026.6 |
| 20260507124142 | 37 | 225 | 0.0 | 0.0 | 0.00 | 0.00 | 0.00 | 70 | 1026.5 |
| 20260507123643 | 37 | 225 | 0.0 | 0.0 | 0.00 | 0.00 | 0.00 | 71 | 1026.5 |
| 20260507123145 | 36 | 225 | 0.0 | 0.0 | 0.00 | 0.00 | 0.00 | 72 | 1026.6 |
| 20260507122617 | 36 | 225 | 0.0 | 0.0 | 0.00 | 0.00 | 0.00 | 72 | 1026.6 |
| 20260507122115 | 36 | 225 | 0.0 | 0.0 | 0.00 | 0.00 | 0.00 | 73 | 1026.6 |
| 20260507121610 | 36 | 225 | 0.0 | 0.0 | 0.00 | 0.00 | 0.00 | 74 | 1026.6 |
| 20260507121109 | 35 | 229 | 0.0 | 0.0 | 0.00 | 0.00 | 0.00 | 74 | 1026.6 |
| 20260507120544 | 35 | 229 | 0.0 | 0.0 | 0.00 | 0.00 | 0.00 | 74 | 1026.6 |
| 20260507120022 | 35 | 229 | 0.0 | 0.0 | 0.00 | 0.00 | 0.00 | 74 | 1026.6 |
| 20260507115525 | 35 | 229 | 0.0 | 0.0 | 0.00 | 0.00 | 0.00 | 74 | 1026.6 |
| 20260507115508 | 35 | 229 | 0.0 | 0.0 | 0.00 | 0.00 | 0.00 | 74 | 1026.5 |
| 20260507114506 | 35 | 229 | 0.0 | 0.0 | 0.00 | 0.00 | 0.00 | 74 | 1026.5 |
| 20260507114003 | 35 | 229 | 0.0 | 0.0 | 0.00 | 0.00 | 0.00 | 74 | 1026.5 |
| 20260507113436 | 35 | 229 | 0.0 | 0.0 | 0.00 | 0.00 | 0.00 | 74 | 1026.5 |
| 20260507112936 | 35 | 229 | 0.0 | 0.0 | 0.00 | 0.00 | 0.00 | 74 | 1026.5 |
| 20260507112439 | 35 | 229 | 0.0 | 0.0 | 0.00 | 0.00 | 0.00 | 74 | 1026.5 |
| 20260507111924 | 35 | 229 | 0.0 | 0.0 | 0.00 | 0.00 | 0.00 | 74 | 1026.5 |
| 20260507111422 | 35 | 229 | 0.0 | 0.0 | 0.00 | 0.00 | 0.00 | 73 | 1026.5 |
| 20260507111130 | 35 | 229 | 0.0 | 0.0 | 0.00 | 0.00 | 0.00 | 73 | 1026.5 |
| 20260507110354 | 35 | 229 | 0.0 | 0.0 | 0.00 | 0.00 | 0.00 | 73 | 1026.4 |
| 20260507105833 | 35 | 229 | 0.0 | 0.0 | 0.00 | 0.00 | 0.00 | 74 | 1026.4 |
| 20260507105311 | 35 | 229 | 0.0 | 0.0 | 0.00 | 0.00 | 0.00 | 74 | 1026.4 |
| 20260507104747 | 35 | 229 | 0.0 | 0.0 | 0.00 | 0.00 | 0.00 | 73 | 1026.5 |
| 20260507104225 | 35 | 229 | 0.0 | 0.0 | 0.00 | 0.00 | 0.00 | 73 | 1026.5 |
| 20260507103727 | 35 | 229 | 0.0 | 0.0 | 0.00 | 0.00 | 0.00 | 73 | 1026.5 |
| 20260507103223 | 35 | 229 | 0.0 | 0.0 | 0.00 | 0.00 | 0.00 | 73 | 1026.5 |
| 20260507102659 | 35 | 229 | 0.0 | 0.0 | 0.00 | 0.00 | 0.00 | 73 | 1026.5 |
| 20260507102136 | 35 | 229 | 0.0 | 0.0 | 0.00 | 0.00 | 0.00 | 72 | 1026.5 |
| 20260507101619 | 35 | 229 | 0.0 | 0.0 | 0.00 | 0.00 | 0.00 | 72 | 1026.5 |
| 20260507101118 | 35 | 229 | 0.0 | 0.0 | 0.00 | 0.00 | 0.00 | 71 | 1026.5 |
| 20260507100619 | 35 | 229 | 0.0 | 0.0 | 0.00 | 0.00 | 0.00 | 71 | 1026.6 |
| 20260507100112 | 35 | 229 | 0.0 | 0.0 | 0.00 | 0.00 | 0.00 | 70 | 1026.6 |
| 20260507095538 | 35 | 229 | 0.0 | 0.0 | 0.00 | 0.00 | 0.00 | 70 | 1026.6 |
| 20260507095019 | 35 | 229 | 0.0 | 0.0 | 0.00 | 0.00 | 0.00 | 69 | 1026.6 |
| 20260507094452 | 35 | 229 | 0.0 | 0.0 | 0.00 | 0.00 | 0.00 | 69 | 1026.6 |
| 20260507094202 | 36 | 229 | 0.0 | 0.0 | 0.00 | 0.00 | 0.00 | 69 | 1026.5 |
| 20260507093637 | 36 | 229 | 0.0 | 0.0 | 0.00 | 0.00 | 0.00 | 69 | 1026.6 |
| 20260507092816 | 36 | 229 | 0.0 | 0.0 | 0.00 | 0.00 | 0.00 | 69 | 1026.6 |
| 20260507092250 | 36 | 229 | 0.0 | 0.0 | 0.00 | 0.00 | 0.00 | 69 | 1026.6 |
| 20260507091726 | 36 | 229 | 0.0 | 0.0 | 0.00 | 0.00 | 0.00 | 68 | 1026.6 |
| 20260507091201 | 36 | 229 | 0.0 | 0.0 | 0.00 | 0.00 | 0.00 | 68 | 1026.6 |
| 20260507090636 | 37 | 229 | 0.0 | 0.0 | 0.00 | 0.00 | 0.00 | 68 | 1026.6 |
| 20260507090105 | 37 | 229 | 0.0 | 0.0 | 0.00 | 0.00 | 0.00 | 68 | 1026.7 |
| 20260507085545 | 37 | 229 | 0.0 | 0.0 | 0.00 | 0.00 | 0.00 | 68 | 1026.7 |
| 20260507085020 | 37 | 229 | 0.0 | 0.0 | 0.00 | 0.00 | 0.00 | 68 | 1026.6 |
| 20260507084517 | 37 | 229 | 0.0 | 1.7 | 0.00 | 0.00 | 0.00 | 69 | 1026.7 |
| 20260507083952 | 37 | 232 | 0.0 | 0.0 | 0.00 | 0.00 | 0.00 | 69 | 1026.7 |
| 20260507083429 | 37 | 240 | 0.0 | 0.0 | 0.00 | 0.00 | 0.00 | 69 | 1026.7 |
| 20260507082916 | 37 | 240 | 0.0 | 0.0 | 0.00 | 0.00 | 0.00 | 69 | 1026.7 |
| 20260507082350 | 37 | 240 | 0.0 | 0.0 | 0.00 | 0.00 | 0.00 | 69 | 1026.7 |
| 20260507081826 | 37 | 240 | 0.0 | 0.0 | 0.00 | 0.00 | 0.00 | 68 | 1026.7 |
| 20260507081301 | 37 | 240 | 0.0 | 0.0 | 0.00 | 0.00 | 0.00 | 68 | 1026.7 |
| 20260507080734 | 37 | 240 | 0.0 | 0.0 | 0.00 | 0.00 | 0.00 | 69 | 1026.7 |
| 20260507080206 | 37 | 241 | 0.0 | 0.0 | 0.00 | 0.00 | 0.00 | 69 | 1026.6 |
| 20260507075659 | 37 | 241 | 0.0 | 0.0 | 0.00 | 0.00 | 0.00 | 69 | 1026.7 |
| 20260507075132 | 37 | 241 | 0.0 | 0.0 | 0.00 | 0.00 | 0.00 | 69 | 1026.7 |
| 20260507074626 | 38 | 241 | 0.0 | 0.0 | 0.00 | 0.00 | 0.00 | 69 | 1026.7 |
| 20260507074356 | 38 | 243 | 0.0 | 0.0 | 0.00 | 0.00 | 0.00 | 69 | 1026.8 |
| 20260507073055 | 38 | 246 | 0.0 | 0.0 | 0.00 | 0.00 | 0.00 | 68 | 1026.9 |
| 20260507072547 | 38 | 246 | 0.0 | 0.0 | 0.00 | 0.00 | 0.00 | 67 | 1027.0 |
| 20260507072021 | 38 | 248 | 0.0 | 0.0 | 0.00 | 0.00 | 0.00 | 67 | 1027.0 |
| 20260507071456 | 38 | 248 | 0.0 | 0.0 | 0.00 | 0.00 | 0.00 | 66 | 1027.0 |
| 20260507070929 | 38 | 249 | 0.0 | 0.0 | 0.00 | 0.00 | 0.00 | 65 | 1027.2 |
| 20260507070425 | 38 | 249 | 0.0 | 0.0 | 0.00 | 0.00 | 0.00 | 65 | 1027.2 |
| 20260507065925 | 38 | 249 | 0.0 | 0.0 | 0.00 | 0.00 | 0.00 | 64 | 1027.3 |
| 20260507065414 | 38 | 249 | 0.0 | 0.0 | 0.00 | 0.00 | 0.00 | 63 | 1027.4 |
| 20260507064848 | 39 | 249 | 0.0 | 0.0 | 0.00 | 0.00 | 0.00 | 63 | 1027.4 |
| 20260507064319 | 39 | 249 | 0.0 | 0.0 | 0.00 | 0.00 | 0.00 | 63 | 1027.4 |
| 20260507063818 | 39 | 249 | 0.0 | 0.0 | 0.00 | 0.00 | 0.00 | 63 | 1027.4 |
| 20260507063314 | 39 | 249 | 0.0 | 0.0 | 0.00 | 0.00 | 0.00 | 62 | 1027.4 |
| 20260507062809 | 39 | 249 | 0.0 | 0.0 | 0.00 | 0.00 | 0.00 | 63 | 1027.5 |
| 20260507062247 | 40 | 249 | 0.0 | 0.0 | 0.00 | 0.00 | 0.00 | 63 | 1027.5 |
| 20260507061745 | 40 | 249 | 0.0 | 0.0 | 0.00 | 0.00 | 0.00 | 62 | 1027.6 |
| 20260507061242 | 40 | 249 | 0.0 | 0.0 | 0.00 | 0.00 | 0.00 | 62 | 1027.6 |
| 20260507060739 | 40 | 249 | 0.0 | 0.0 | 0.00 | 0.00 | 0.00 | 62 | 1027.7 |
| 20260507060238 | 40 | 249 | 0.0 | 0.0 | 0.00 | 0.00 | 0.00 | 62 | 1027.7 |
| 20260507055939 | 40 | 249 | 0.0 | 0.0 | 0.00 | 0.00 | 0.00 | 62 | 1027.7 |
| 20260507055152 | 41 | 249 | 0.0 | 0.0 | 0.00 | 0.00 | 0.00 | 63 | 1027.7 |
| 20260507054918 | 41 | 249 | 0.0 | 0.0 | 0.00 | 0.00 | 0.00 | 63 | 1027.7 |
| 20260507054146 | 41 | 249 | 0.0 | 0.0 | 0.00 | 0.00 | 0.00 | 62 | 1027.7 |
| 20260507053633 | 41 | 249 | 0.0 | 0.0 | 0.00 | 0.00 | 0.00 | 62 | 1027.7 |
| 20260507053135 | 41 | 249 | 0.0 | 0.0 | 0.00 | 0.00 | 0.00 | 62 | 1027.7 |
| 20260507052607 | 41 | 249 | 0.0 | 0.0 | 0.00 | 0.00 | 0.00 | 61 | 1027.8 |
| 20260507052057 | 41 | 249 | 0.0 | 0.0 | 0.00 | 0.00 | 0.00 | 61 | 1027.8 |
| 20260507051555 | 41 | 249 | 0.0 | 0.0 | 0.00 | 0.00 | 0.00 | 61 | 1027.9 |
| 20260507051324 | 41 | 249 | 0.0 | 0.0 | 0.00 | 0.00 | 0.00 | 62 | 1027.9 |
| 20260507050525 | 41 | 249 | 0.0 | 0.0 | 0.00 | 0.00 | 0.00 | 63 | 1027.9 |
| 20260507050255 | 41 | 249 | 0.0 | 0.0 | 0.00 | 0.00 | 0.00 | 61 | 1027.9 |
| 20260507045500 | 41 | 249 | 0.0 | 0.0 | 0.00 | 0.00 | 0.00 | 61 | 1027.9 |
| 20260507045004 | 41 | 249 | 0.0 | 0.0 | 0.00 | 0.00 | 0.00 | 60 | 1028.0 |
| 20260507044435 | 41 | 249 | 0.0 | 0.0 | 0.00 | 0.00 | 0.00 | 59 | 1028.0 |
| 20260507043934 | 41 | 249 | 0.0 | 0.0 | 0.00 | 0.00 | 0.00 | 58 | 1028.0 |
| 20260507043637 | 41 | 249 | 0.0 | 0.0 | 0.00 | 0.00 | 0.00 | 58 | 1028.1 |
| 20260507042904 | 41 | 249 | 0.0 | 0.0 | 0.00 | 0.00 | 0.00 | 58 | 1028.1 |
| 20260507042335 | 41 | 249 | 0.0 | 0.0 | 0.00 | 0.00 | 0.00 | 58 | 1028.1 |
| 20260507041825 | 41 | 249 | 0.0 | 0.0 | 0.00 | 0.00 | 0.00 | 57 | 1028.1 |
| 20260507041324 | 41 | 249 | 0.0 | 0.0 | 0.00 | 0.00 | 0.00 | 57 | 1028.2 |
| 20260507040758 | 41 | 249 | 0.0 | 0.0 | 0.00 | 0.00 | 0.00 | 57 | 1028.2 |
| 20260507040240 | 41 | 249 | 0.0 | 0.0 | 0.00 | 0.00 | 0.00 | 57 | 1028.2 |
| 20260507035742 | 41 | 249 | 0.0 | 0.0 | 0.00 | 0.00 | 0.00 | 57 | 1028.2 |
| 20260507035239 | 41 | 249 | 0.0 | 0.0 | 0.00 | 0.00 | 0.00 | 57 | 1028.3 |
| 20260507035011 | 41 | 249 | 0.0 | 0.0 | 0.00 | 0.00 | 0.00 | 57 | 1028.3 |
| 20260507034212 | 41 | 249 | 0.0 | 0.0 | 0.00 | 0.00 | 0.00 | 57 | 1028.3 |
| 20260507034145 | 41 | 249 | 0.0 | 0.0 | 0.00 | 0.00 | 0.00 | 57 | 1028.3 |
| 20260507033139 | 41 | 249 | 0.0 | 0.0 | 0.00 | 0.00 | 0.00 | 57 | 1028.3 |
| 20260507032609 | 41 | 249 | 0.0 | 0.0 | 0.00 | 0.00 | 0.00 | 58 | 1028.4 |
| 20260507032111 | 41 | 249 | 0.0 | 0.0 | 0.00 | 0.00 | 0.00 | 58 | 1028.4 |
| 20260507031614 | 41 | 249 | 0.0 | 0.0 | 0.00 | 0.00 | 0.00 | 58 | 1028.3 |
| 20260507031319 | 41 | 249 | 0.0 | 0.0 | 0.00 | 0.00 | 0.00 | 59 | 1028.4 |
| 20260507030519 | 41 | 249 | 0.0 | 0.0 | 0.00 | 0.00 | 0.00 | 59 | 1028.4 |